Regional Weather Roundup
Issued by NWS

Home | Current Version | Previous Version | Text Only | Print | Product List | Glossary On
Versions: 1 2 3 4 5 6 7 8 9 10 11 12 13 14 15 16 17 18 19 20 21 22 23 24 25 26 27 28 29 30 31 32 33 34 35 36 37 38 39 40 41 42 43 44 45 46 47 48 49 50
000
ASUS43 KMKX 250411
RWRWI

WISCONSIN REGIONAL WEATHER ROUNDUP
NATIONAL WEATHER SERVICE MILWAUKEE/SULLIVAN WI
1100 PM CDT FRI MAR 24 2017

NOTE: "FAIR" INDICATES FEW OR NO CLOUDS BELOW 12,000 FEET WITH NO
SIGNIFICANT WEATHER AND/OR OBSTRUCTIONS TO VISIBILITY.

WIZ001-002-006>008-014>016-023>028-250500-
NORTHWEST WISCONSIN

CITY           SKY/WX    TMP DP  RH WIND       PRES   REMARKS
SUPERIOR ARPT  CLOUDY    35  33  94 NE9       30.24F WCI  27
ASHLAND        CLOUDY    34  32  92 E14       30.24F WCI  25
HAYWARD        CLOUDY    36  29  75 NE13G20   30.20F WCI  27
SIREN          CLOUDY    36  30  78 E6        30.20S WCI  31
CUMBERLAND     CLOUDY    34  30  86 NE13      30.17F WCI  25
RICE LAKE      CLOUDY    36  32  84 CALM      30.20R
CHETEK         CLOUDY    37  32  84 NE7       30.18S WCI  31
LADYSMITH      CLOUDY    36  32  85 NE9G18    30.19F WCI  29
EAU CLAIRE     CLOUDY    39  34  82 NE10      30.15F WCI  32
MENOMONIE      CLOUDY    39  34  81 N7        30.17S WCI  34
NEW RICHMOND   CLOUDY    37  32  82 NE8       30.17F WCI  30
OSCEOLA        CLOUDY    38  31  76 E10G20    30.20F WCI  31
$$

WIZ003>005-009-010-017-018-250500-
NORTH CENTRAL WISCONSIN

CITY           SKY/WX    TMP DP  RH WIND       PRES   REMARKS
MANITOWISH WTR CLOUDY    32  32 100 NE7       30.19F FOG     WCI  26
ARBOR VITAE    CLOUDY    37  35  94 NE3       30.18F FOG
WOODRUFF       CLOUDY    37  35  94 NE3       30.18F FOG
RHINELANDER    CLOUDY    35  32  88 VRB7      30.18F WCI  29
EAGLE RIVER    CLOUDY    33  32  98 NE8       30.18S WCI  25
LAND O LAKES   CLOUDY    33  32  97 NE6       30.21F WCI  27
PHILLIPS       CLOUDY    33  31  93 NE9       30.17F WCI  26
TOMAHAWK       CLOUDY    34  31  91 NE5       30.17F WCI  30
MEDFORD        CLOUDY    34  32  92 NE10      30.15S WCI  26
MERRILL        CLOUDY    35  33  92 NE10G16   30.17S WCI  27
$$

WIZ029-030-035-036-043>047-250500-
CENTRAL WISCONSIN

CITY           SKY/WX    TMP DP  RH WIND       PRES   REMARKS
WAUSAU         CLOUDY    35  32  88 NE5       30.14F WCI  31
MOSINEE        CLOUDY    34  34 100 NE9       30.16S WCI  26
MARSHFIELD     CLOUDY    36  33  89 E10       30.13S WCI  28
STEVENS POINT  LGT RAIN  34  34 100 NE7       30.17R WCI  28
WAUPACA        LGT RAIN  38  36  92 NE7       30.18R WCI  32
WAUTOMA        LGT RAIN  36  35  96 E7        30.17S WCI  30
WISC RAPIDS    LGT RAIN  37  36  96 NE9       30.17R WCI  30
CAMP DOUGLAS   LGT RAIN  37  36  93 E5        30.14S WCI  34
$$

WIZ011>013-019>022-031-037>040-048>050-250500-
NORTHEAST WISCONSIN

CITY           SKY/WX    TMP DP  RH WIND       PRES   REMARKS
ANTIGO         CLOUDY    33  32  96 NE14      30.16F WCI  23
SHAWANO        CLOUDY    37  34  89 NE14      30.18F WCI  28
OCONTO         CLOUDY    35  33  92 NE9G17    30.18F WCI  28
STURGEON BAY   LGT RAIN  34  32  92 N13       30.18R WCI  25
GREEN BAY      LGT RAIN  36  36 100 NE20G25   30.18R FOG     WCI  25
MANITOWOC      RAIN      36  34  92 N8        30.18R FOG     WCI  30
APPLETON       LGT RAIN  36  36 100 NE14G21   30.15R WCI  27
CLINTONVILLE   LGT RAIN  36  34  93 NE10G24   30.18R WCI  28
OSHKOSH        LGT RAIN  36  34  92 NE13      30.17R FOG     WCI  27
$$

WIZ032>034-041-042-053>061-250500-
SOUTHWEST WISCONSIN

CITY           SKY/WX    TMP DP  RH WIND       PRES   REMARKS
LA CROSSE      LGT RAIN  41  38  89 E5        30.14R
SPARTA         LGT RAIN  37  37  97 NE6       30.15S WCI  33
VIROQUA        CLOUDY    37  37 100 NE12      30.10F WCI  29
BOSCOBEL       LGT RAIN  40  37  89 NE8       30.11S FOG     WCI  34
PRAIRIE DU CHI RAIN      39  38  96 NE3       30.09S
PLATTEVILLE    CLOUDY    40  40 100 NE13      30.07R WCI  33
$$

WIZ056-057-062-063-064-067-068-250500-
SOUTH CENTRAL WISCONSIN

CITY           SKY/WX    TMP DP  RH WIND       PRES   REMARKS
REEDSBURG      CLOUDY    37  37 100 E9        30.13F WCI  30
BARABOO/DELLS  DRIZZLE   36  35  96 E12       30.13F WCI  28
LONE ROCK      LGT RAIN  39  35  86 NE10      30.11F WCI  32
MINERAL POINT  LGT RAIN  39  39 100 NE13G22   30.07S WCI  32
MADISON        CLOUDY    38  35  89 NE12      30.12R WCI  30
MIDDLETON      CLOUDY    39  36  90 NE13G21   30.12F WCI  31
WATERTOWN      CLOUDY    38  36  94 NE10      30.12S WCI  30
MONROE         CLOUDY    39  37  93 NE15      30.07R FOG     WCI  31
JANESVILLE     CLOUDY    41  41 100 NE12G18   30.08F
$$

WIZ051-052-058>065-066-070>072-250500-
SOUTHEAST WISCONSIN

CITY           SKY/WX    TMP DP  RH WIND       PRES   REMARKS
MILWAUKEE      CLOUDY    38  34  85 N13G21    30.13R WCI  30
WAUKESHA       CLOUDY    36  32  87 NE12G17   30.14R WCI  27
MILWAUKEE/TIMM CLOUDY    36  32  87 NE17      30.13R WCI  25
RACINE         CLOUDY    38  34  85 N13G21    30.13R WCI  30
KENOSHA        CLOUDY    38  35  89 N13       30.11R WCI  30
FOND DU LAC    CLOUDY    37  33  85 NE13      30.16R WCI  29
SHEBOYGAN      CLOUDY    36  33  89 NE17G23   30.16R WCI  26
WEST BEND      CLOUDY    36  34  93 NE14      30.14R WCI  27
JUNEAU         CLOUDY    36  33  90 N12       30.14S WCI  28
$$

LSZ147-162-250500-
LAKE SUPERIOR

STATION/POSITION TIME  TEMP    WIND        PRES    WAVE
                       AIR SEA DIR/SP/G            HT/PER
                 (UTC) (F)     (DEG/KT/KT) (MB)    (FT/S)
DEVILS ISLAND    0400   35      80/ 18/ 21 1025.6S
PORT WING        0340   36      40/  7/  8 1024.4S
SAXON HARBOR     0330   34      50/  8/  9 1024.0S
$$

LMZ867-665-643>646-250500-
LAKE MICHIGAN

STATION/POSITION TIME  TEMP    WIND        PRES    WAVE
                       AIR SEA DIR/SP/G            HT/PER
                 (UTC) (F)     (DEG/KT/KT) (MB)    (FT/S)
CHAMBERS ISLAND  0340   34     350/ 12/ 16 1022.7R
NORTHPORT PIER   0340   35     360/ 10/ 12 1023.0R
SISTER BAY       0336   34      10/ 12/ 18   N/A
KEWAUNEE LAKESHO 0348   36      20/ 12/ 19 1021.2R
SHEBOYGAN LAKESH 0400   36      10/ 16/ 17 1021.7R
PORT WASHINGTON  0340   38      20/ 11/ 20 1021.3S
MILWAUKEE LAKESH 0350   37     360/ 14/ 18   N/A
KENOSHA   LAKESH 0400   38     360/ 18/ 21 1019.3
$$

TC  - TEMPERATURE IN CELSIUS
VSB - VISIBILITY IN STATUTE MILES
WCI - WIND CHILL INDEX
HX  - HEAT INDEX




USA.gov is the U.S. government's official web portal to all federal, state and local government web resources and services.